Tracking 19575 objects as of 18-Feb-2019
HD Live streaming from Space Station
objects crossing your sky now

COSMOS 2499

Track COSMOS 2499 now!
10-day predictions
COSMOS 2499 is classified as:


NORAD ID: 39765
Int'l Code: 2014-028E
Perigee: 1,158.6 km
Apogee: 1,515.2 km
Inclination: 82.4 °
Period: 112.2 minutes
Semi major axis: 7707 km
RCS: Unknown
Launch date: May 23, 2014
Source: Commonwealth of Independent States (former USSR) (CIS)
Launch site: PLESETSK MISSILE AND SPACE COMPLEX (PKMTR)
aabbcc
Your satellite tracking list
Your tracking list is empty




NASA's NSSDC Master Catalog

Two Line Element Set (TLE):
1 39765U 14028E   19049.54578457  .00000039  00000-0  10000-3 0  9999
2 39765  82.4400 258.6957 0231291 162.8806 198.0269 12.82921126222152
Source of the keplerian elements: Caltech